Location: McFarlands Corners
(41.4117°N, 81.3382°W)
Time: 06:22:30
(UTC+00:00)

Transit 4A - Pass Details

Date: 20 February 2026
Orbit: 864 x 977 km, 66.8° (Epoch: 5 March)

Event Time Altitude Azimuth Distance (km) Brightness Sun altitude
Rises 16:36:14 0° 334° (NNW) 3,606 10.5 35.9°
Reaches altitude 10° 16:38:55 10° 342° (NNW) 2,675 9.9 36.0°
Maximum altitude 16:44:48 41° 52° (NE) 1,366 9.0 36.4°
Drops below altitude 10° 16:50:46 10° 121° (ESE) 2,713 11.1 36.7°
Sets 16:53:30 0° 129° (SE) 3,662 11.6 36.8°
